Weather History for Lorain / Elyria, OH

Change the Weather History Date:

Monday, October 3, 2011

  Actual Average (KCLE) Record (KCLE)
Temperature  
Mean Temperature 50 °F 58 °F  
Max Temperature 55 °F 67 °F 89 °F (1953)
Min Temperature 44 °F 49 °F 29 °F (1975)
Degree Days  
Heating Degree Days 16 8  
Month to date heating degree days 22  
Since 1 July heating degree days 125  
Cooling Degree Days 0 1  
Month to date cooling degree days 3  
Year to date cooling degree days 807  
Moisture  
Dew Point 49 °F    
Average Humidity 90    
Maximum Humidity 100    
Minimum Humidity 76    
Precipitation  
Precipitation 0.28 in 0.11 in 1.27 in (1986)
Month to date precipitation 0.32  
Year to date precipitation 29.67  
Snow  
Snow 0.00 in 0.00 in - ()
Month to date snowfall 0.0  
Since 1 July snowfall 0.0  
Since 1 September snowfall 0.0  
Snow Depth -    
Sea Level Pressure  
Sea Level Pressure 30.08 in    
Wind  
Wind Speed 5 mph (NNW)    
Max Wind Speed 9 mph    
Max Gust Speed 18 mph    
Visibility 6 miles    
Events Rain    
T = Trace of Precipitation, MM = Missing Value Source: NWS Daily Summary

Daily Weather History Graph

Daily Weather History Graph

Search for Another Location

Airport:

Trip Planner

Search our weather history database for the weather conditions in past years. The results will help you decide how hot, cold, wet, or windy it might be!

Date:

Astronomy

Oct. 03, 2011 Rise Set
Actual Time 7:27 AM EDT 7:07 PM EDT
Civil Twilight 6:59 AM EDT 7:35 PM EDT
Nautical Twilight 6:27 AM EDT 8:07 PM EDT
Astronomical Twilight 5:55 AM EDT 8:39 PM EDT
Moon 2:27 PM EDT (10/3) No Moon Set
Length of Visible Light 12h 35m
Length of Day
11h 40m
Waxing Crescent, 45% of the Moon is Illuminated
Oct 3
Waxing Crescent
Oct 3
First Quarter
Oct 11
Full
Oct 19
Last Quarter
Oct 26
New

Hourly Weather History & Observations

Time (EDT) Temp. Windchill Dew Point Humidity Pressure Visibility Wind Dir Wind Speed Gust Speed Precip Events Conditions
12:31 AM 50.0 °F - 42.8 °F 76% 30.04 in 10.0 mi North 8.1 mph - N/A   Scattered Clouds
1:53 AM 46.9 °F - 42.1 °F 83% 30.05 in 10.0 mi North 5.8 mph - N/A   Clear
3:08 AM 44.6 °F 43.1 °F 41.0 °F 87% 30.03 in 10.0 mi WNW 3.5 mph - N/A   Mostly Cloudy
3:41 AM 44.6 °F 43.1 °F 42.8 °F 93% 30.03 in 10.0 mi North 3.5 mph - N/A   Scattered Clouds
3:53 AM 46.9 °F - 43.0 °F 86% 30.05 in 10.0 mi North 3.5 mph - N/A   Mostly Cloudy
4:01 AM 48.2 °F - 42.8 °F 82% 30.04 in 10.0 mi North 3.5 mph - N/A   Mostly Cloudy
4:53 AM 46.9 °F - 44.1 °F 90% 30.04 in 10.0 mi West 4.6 mph - N/A   Overcast
5:53 AM 46.9 °F - 44.1 °F 90% 30.05 in 10.0 mi West 3.5 mph - 0.01 in Rain Light Rain
6:13 AM 48.2 °F - 44.6 °F 87% 30.04 in 10.0 mi West 3.5 mph - 0.01 in Rain Light Rain
6:50 AM 48.2 °F - 46.4 °F 93% 30.03 in 9.0 mi West 4.6 mph - 0.03 in Rain Light Rain
6:53 AM 48.0 °F - 46.0 °F 93% 30.04 in 9.0 mi West 4.6 mph - 0.03 in Rain Light Rain
7:29 AM 48.2 °F - 46.4 °F 93% 30.05 in 4.0 mi Calm Calm - 0.04 in Rain Rain
7:45 AM 48.2 °F - 46.4 °F 93% 30.06 in 2.5 mi WNW 4.6 mph - 0.07 in Rain Rain
7:53 AM 48.9 °F - 46.9 °F 93% 30.07 in 2.5 mi WNW 3.5 mph - 0.09 in Rain Rain
8:00 AM 48.2 °F - 46.4 °F 93% 30.06 in 5.0 mi NW 5.8 mph - 0.00 in Rain Light Rain
8:53 AM 52.0 °F - 50.0 °F 93% 30.07 in 3.0 mi NNW 5.8 mph - 0.07 in Rain Light Rain
9:32 AM 53.6 °F - 50.0 °F 88% 30.07 in 10.0 mi North 5.8 mph - 0.02 in Rain Light Rain
9:39 AM 53.6 °F - 50.0 °F 88% 30.07 in 10.0 mi North 5.8 mph - 0.02 in   Overcast
9:53 AM 53.1 °F - 50.0 °F 89% 30.08 in 10.0 mi NNW 4.6 mph - 0.02 in   Overcast
10:53 AM 53.1 °F - 48.9 °F 86% 30.07 in 10.0 mi NNW 5.8 mph - N/A   Overcast
11:53 AM 54.0 °F - 50.0 °F 86% 30.08 in 2.5 mi North 6.9 mph 18.4 mph 0.01 in Rain Light Rain
12:53 PM 55.0 °F - 50.0 °F 83% 30.08 in 10.0 mi North 8.1 mph - 0.00 in   Overcast
1:33 PM 53.6 °F - 51.8 °F 94% 30.09 in 3.0 mi North 9.2 mph - 0.00 in Rain Light Rain
1:49 PM 53.6 °F - 51.8 °F 94% 30.09 in 2.0 mi North 6.9 mph - 0.00 in Rain Light Rain
1:51 PM 53.6 °F - 51.8 °F 94% 30.09 in 1.8 mi North 8.1 mph - 0.00 in Rain Light Rain
1:58 PM 53.6 °F - 51.8 °F 94% 30.08 in 1.8 mi North 6.9 mph - 0.01 in Rain Light Rain
2:23 PM 53.6 °F - 51.8 °F 94% 30.08 in 1.8 mi North 4.6 mph - 0.02 in Rain Light Rain
2:39 PM 55.4 °F - 51.8 °F 88% 30.08 in 2.5 mi North 5.8 mph - 0.02 in Rain Light Rain
2:53 PM 55.0 °F - 52.0 °F 89% 30.09 in 3.0 mi NNE 6.9 mph - 0.02 in Rain Light Rain
3:26 PM 55.4 °F - 53.6 °F 94% 30.09 in 2.0 mi North 5.8 mph - 0.01 in Rain Light Rain
3:37 PM 55.4 °F - 53.6 °F 94% 30.09 in 1.5 mi North 8.1 mph - 0.02 in Rain Light Rain
4:34 PM 55.4 °F - 51.8 °F 88% 30.09 in 3.0 mi North 6.9 mph - 0.01 in Rain Light Rain
4:53 PM 55.0 °F - 52.0 °F 89% 30.11 in 7.0 mi NNE 8.1 mph - 0.01 in   Overcast
5:37 PM 55.4 °F - 53.6 °F 94% 30.11 in 4.0 mi NNE 3.5 mph - N/A   Overcast
5:53 PM 55.0 °F - 53.1 °F 93% 30.12 in 6.0 mi NNE 3.5 mph - N/A   Overcast
6:07 PM 55.4 °F - 53.6 °F 94% 30.12 in 5.0 mi NNE 4.6 mph - 0.01 in Rain Light Rain
6:38 PM 55.4 °F - 53.6 °F 94% 30.13 in 3.0 mi North 5.8 mph - 0.01 in Rain Light Rain
6:53 PM 55.0 °F - 52.0 °F 89% 30.14 in 3.0 mi NNE 3.5 mph - 0.01 in Rain Light Rain
7:29 PM 53.6 °F - 53.6 °F 100% 30.15 in 7.0 mi North 4.6 mph - 0.01 in Rain Light Rain
7:53 PM 54.0 °F - 52.0 °F 93% 30.16 in 10.0 mi North 3.5 mph - 0.01 in   Overcast
9:53 PM 55.0 °F - 53.1 °F 93% 30.17 in 10.0 mi Calm Calm - N/A   Overcast
10:53 PM 55.0 °F - 52.0 °F 89% 30.18 in 10.0 mi WNW 3.5 mph - N/A   Overcast
11:53 PM 55.0 °F - 52.0 °F 89% 30.18 in 10.0 mi West 3.5 mph - N/A   Overcast